QPF
0.01 0.02 0.03 0.03 0.03 0.03 0.04 0.05 0.05 0.06 0.05 0.03 0.03 0.02 0.02 0.01 0.01 0.01 0.02 0.02 0.01 0.02 0.02 0.03 0.03 0.03 0.02 0.03 0.05 0.06 0.07 0.06 0.10 0.12 0.08 0.05 0.06 0.07 0.08 0.07 0.04 0.02 0.02
0.00 0.01 0.03 0.03 0.03 0.04 0.04 0.06 0.06 0.07 0.06 0.04 0.03 0.03 0.03 0.02 0.02 0.01 0.03 0.03 0.02 0.03 0.03 0.04 0.04 0.03 0.02 0.02 0.04 0.05 0.05 0.06 0.07 0.10 0.08 0.07 0.06 0.05 0.05 0.07 0.08 0.06 0.05
0.01 0.01 0.03 0.04 0.05 0.06 0.06 0.06 0.06 0.07 0.06 0.06 0.04 0.03 0.03 0.03 0.03 0.02 0.04 0.05 0.05 0.06 0.07 0.06 0.06 0.06 0.05 0.04 0.05 0.05 0.05 0.05 0.05 0.06 0.07 0.06 0.07 0.08 0.05 0.06 0.08 0.08 0.07
0.01 0.02 0.03 0.06 0.05 0.05 0.06 0.07 0.06 0.06 0.06 0.07 0.06 0.04 0.04 0.04 0.04 0.04 0.06 0.05 0.07 0.09 0.10 0.08 0.08 0.08 0.06 0.05 0.06 0.06 0.06 0.06 0.06 0.05 0.05 0.05 0.04 0.07 0.08 0.08 0.11 0.11 0.08
0.01 0.02 0.04 0.06 0.07 0.04 0.04 0.05 0.05 0.05 0.05 0.06 0.06 0.05 0.04 0.03 0.03 0.03 0.04 0.05 0.06 0.07 0.08 0.07 0.07 0.06 0.04 0.04 0.03 0.03 0.04 0.06 0.05 0.03 0.02 0.04 0.04 0.05 0.06 0.11 0.13 0.11 0.07
0.01 0.02 0.04 0.07 0.09 0.06 0.04 0.04 0.04 0.06 0.06 0.05 0.05 0.04 0.04 0.03 0.03 0.03 0.04 0.04 0.06 0.07 0.06 0.09 0.11 0.10 0.07 0.05 0.04 0.04 0.05 0.06 0.04 0.02 0.02 0.03 0.04 0.04 0.06 0.09 0.16 0.14 0.06
0.01 0.03 0.04 0.08 0.14 0.12 0.07 0.06 0.08 0.08 0.06 0.05 0.04 0.03 0.04 0.04 0.03 0.05 0.05 0.04 0.05 0.07 0.08 0.10 0.14 0.19 0.13 0.07 0.05 0.04 0.05 0.07 0.06 0.03 0.03 0.04 0.05 0.04 0.06 0.09 0.13 0.15 0.08
0.02 0.04 0.06 0.11 0.19 0.15 0.11 0.07 0.09 0.10 0.07 0.07 0.06 0.05 0.05 0.05 0.04 0.04 0.06 0.05 0.06 0.09 0.09 0.10 0.12 0.18 0.25 0.15 0.08 0.06 0.06 0.07 0.07 0.06 0.05 0.05 0.06 0.05 0.06 0.09 0.12 0.13 0.08
0.02 0.05 0.07 0.08 0.11 0.09 0.09 0.08 0.07 0.07 0.06 0.06 0.07 0.08 0.08 0.06 0.05 0.04 0.05 0.06 0.07 0.09 0.09 0.10 0.10 0.09 0.13 0.15 0.10 0.08 0.07 0.07 0.08 0.07 0.06 0.08 0.07 0.07 0.07 0.08 0.11 0.12 0.09
0.02 0.04 0.06 0.06 0.07 0.06 0.06 0.07 0.07 0.07 0.06 0.05 0.06 0.07 0.07 0.06 0.06 0.05 0.06 0.07 0.07 0.09 0.10 0.11 0.11 0.08 0.07 0.08 0.09 0.08 0.08 0.08 0.07 0.09 0.09 0.08 0.06 0.08 0.08 0.07 0.09 0.11 0.10
0.02 0.03 0.04 0.06 0.06 0.06 0.05 0.06 0.08 0.08 0.06 0.06 0.06 0.06 0.06 0.08 0.08 0.08 0.07 0.08 0.09 0.10 0.10 0.11 0.11 0.09 0.09 0.09 0.09 0.10 0.11 0.08 0.07 0.07 0.08 0.07 0.07 0.08 0.09 0.08 0.09 0.11 0.12
0.03 0.02 0.02 0.04 0.06 0.06 0.05 0.06 0.07 0.08 0.06 0.05 0.04 0.06 0.07 0.07 0.07 0.07 0.08 0.10 0.10 0.11 0.13 0.14 0.14 0.12 0.11 0.11 0.11 0.12 0.12 0.09 0.08 0.06 0.05 0.06 0.07 0.08 0.10 0.10 0.11 0.11 0.13
0.04 0.03 0.02 0.02 0.03 0.04 0.04 0.04 0.05 0.06 0.07 0.04 0.04 0.04 0.06 0.07 0.06 0.06 0.08 0.08 0.09 0.11 0.14 0.17 0.14 0.12 0.11 0.12 0.12 0.11 0.12 0.11 0.09 0.07 0.05 0.06 0.07 0.09 0.11 0.11 0.11 0.11 0.13
0.04 0.04 0.02 0.02 0.02 0.03 0.03 0.04 0.04 0.05 0.06 0.06 0.04 0.04 0.06 0.05 0.05 0.06 0.06 0.06 0.07 0.09 0.10 0.16 0.19 0.16 0.13 0.12 0.11 0.09 0.09 0.09 0.07 0.07 0.06 0.05 0.06 0.07 0.09 0.10 0.09 0.09 0.10
0.02 0.03 0.03 0.03 0.03 0.03 0.03 0.04 0.06 0.06 0.07 0.08 0.06 0.05 0.06 0.05 0.04 0.03 0.03 0.04 0.05 0.07 0.09 0.14 0.16 0.16 0.16 0.13 0.11 0.08 0.08 0.06 0.05 0.05 0.04 0.04 0.04 0.05 0.06 0.07 0.07 0.06 0.06
0.02 0.03 0.04 0.04 0.03 0.02 0.03 0.04 0.06 0.10 0.09 0.09 0.06 0.05 0.05 0.05 0.04 0.03 0.02 0.02 0.03 0.05 0.08 0.13 0.14 0.14 0.12 0.11 0.12 0.13 0.11 0.07 0.06 0.07 0.05 0.05 0.04 0.04 0.05 0.05 0.06 0.06 0.05
0.02 0.02 0.03 0.03 0.03 0.03 0.02 0.03 0.05 0.09 0.09 0.06 0.05 0.06 0.04 0.02 0.03 0.02 0.03 0.03 0.04 0.05 0.08 0.11 0.14 0.12 0.10 0.08 0.10 0.13 0.14 0.11 0.08 0.07 0.06 0.07 0.06 0.04 0.04 0.04 0.05 0.05 0.06
0.02 0.02 0.01 0.02 0.03 0.04 0.04 0.04 0.04 0.05 0.05 0.05 0.06 0.07 0.03 0.02 0.02 0.02 0.02 0.03 0.04 0.05 0.06 0.07 0.08 0.08 0.09 0.08 0.09 0.11 0.14 0.14 0.09 0.07 0.06 0.07 0.08 0.05 0.04 0.03 0.03 0.03 0.04
0.02 0.02 0.02 0.02 0.02 0.04 0.05 0.07 0.06 0.06 0.06 0.06 0.06 0.06 0.04 0.04 0.03 0.04 0.04 0.04 0.04 0.04 0.04 0.06 0.07 0.09 0.09 0.08 0.07 0.09 0.11 0.14 0.12 0.08 0.06 0.06 0.06 0.06 0.04 0.03 0.03 0.03 0.03
0.02 0.03 0.03 0.02 0.03 0.04 0.07 0.09 0.06 0.06 0.06 0.06 0.05 0.06 0.07 0.06 0.05 0.05 0.05 0.05 0.05 0.06 0.07 0.08 0.10 0.10 0.09 0.08 0.07 0.07 0.08 0.09 0.10 0.09 0.06 0.05 0.04 0.04 0.03 0.02 0.03 0.02 0.02
0.05 0.05 0.04 0.03 0.03 0.04 0.04 0.06 0.07 0.06 0.06 0.06 0.06 0.06 0.07 0.07 0.07 0.07 0.06 0.06 0.06 0.06 0.07 0.09 0.10 0.09 0.09 0.10 0.09 0.07 0.06 0.07 0.07 0.06 0.05 0.04 0.03 0.03 0.02 0.02 0.03 0.02 0.01
0.05 0.07 0.06 0.05 0.04 0.03 0.03 0.03 0.05 0.06 0.05 0.05 0.06 0.06 0.06 0.07 0.07 0.07 0.07 0.07 0.06 0.07 0.08 0.09 0.09 0.08 0.06 0.08 0.09 0.07 0.06 0.06 0.04 0.03 0.03 0.03 0.02 0.02 0.02 0.02 0.02 0.02 0.01
0.04 0.04 0.06 0.06 0.04 0.03 0.03 0.02 0.03 0.03 0.02 0.03 0.03 0.04 0.06 0.06 0.07 0.08 0.10 0.08 0.08 0.09 0.09 0.09 0.09 0.07 0.06 0.07 0.07 0.07 0.07 0.06 0.04 0.03 0.02 0.01 0.01 0.01 0.02 0.02 0.01 0.01 0.02
0.03 0.03 0.05 0.06 0.04 0.03 0.03 0.02 0.02 0.02 0.02 0.03 0.04 0.05 0.06 0.05 0.06 0.08 0.09 0.08 0.09 0.10 0.09 0.08 0.07 0.07 0.07 0.06 0.05 0.04 0.04 0.04 0.04 0.04 0.03 0.02 0.01 0.02 0.02 0.01 0.01 0.01 0.02
0.02 0.02 0.04 0.05 0.04 0.03 0.03 0.03 0.03 0.03 0.04 0.04 0.04 0.04 0.05 0.05 0.05 0.05 0.05 0.06 0.09 0.10 0.10 0.09 0.09 0.08 0.08 0.08 0.07 0.05 0.03 0.03 0.03 0.03 0.03 0.02 0.02 0.02 0.01 0.01 0.01 0.01 0.02
0.02 0.02 0.02 0.03 0.04 0.04 0.04 0.04 0.05 0.04 0.04 0.05 0.05 0.05 0.05 0.06 0.05 0.04 0.05 0.06 0.08 0.08 0.09 0.09 0.09 0.09 0.08 0.08 0.08 0.07 0.06 0.04 0.04 0.04 0.03 0.03 0.02 0.03 0.02 0.01 0.01 0.02 0.02
MSLP
1010.86 1010.76 1010.78 1010.90 1011.08 1011.24 1011.35 1011.37 1011.31 1011.20 1011.10 1011.06 1011.12 1011.30 1011.58 1011.93 1012.30 1012.63 1012.88 1013.04 1013.12 1013.15 1013.17 1013.21 1013.29 1013.43 1013.60 1013.80 1014.00 1014.19 1014.36 1014.51 1014.65 1014.79 1014.94 1015.10 1015.27 1015.44 1015.62 1015.79 1015.96 1016.11 1016.26
1011.11 1011.07 1011.13 1011.28 1011.46 1011.62 1011.70 1011.69 1011.59 1011.44 1011.30 1011.23 1011.26 1011.42 1011.69 1012.02 1012.37 1012.69 1012.92 1013.06 1013.12 1013.14 1013.16 1013.21 1013.31 1013.48 1013.70 1013.94 1014.17 1014.37 1014.53 1014.65 1014.75 1014.85 1014.96 1015.10 1015.26 1015.45 1015.64 1015.84 1016.03 1016.20 1016.36
1011.20 1011.20 1011.31 1011.49 1011.70 1011.88 1011.99 1011.99 1011.89 1011.73 1011.57 1011.46 1011.45 1011.56 1011.78 1012.05 1012.35 1012.61 1012.80 1012.91 1012.96 1012.99 1013.03 1013.12 1013.27 1013.49 1013.75 1014.02 1014.27 1014.46 1014.59 1014.68 1014.73 1014.78 1014.86 1014.97 1015.14 1015.35 1015.58 1015.82 1016.04 1016.25 1016.43
1011.11 1011.14 1011.28 1011.51 1011.78 1012.01 1012.16 1012.21 1012.14 1012.00 1011.83 1011.70 1011.64 1011.68 1011.82 1012.02 1012.23 1012.42 1012.56 1012.65 1012.70 1012.74 1012.82 1012.96 1013.17 1013.44 1013.74 1014.03 1014.27 1014.43 1014.52 1014.56 1014.56 1014.56 1014.61 1014.73 1014.91 1015.15 1015.43 1015.72 1016.00 1016.24 1016.45
1010.92 1010.96 1011.12 1011.40 1011.71 1012.00 1012.22 1012.32 1012.29 1012.18 1012.01 1011.85 1011.75 1011.73 1011.79 1011.90 1012.04 1012.16 1012.25 1012.32 1012.37 1012.44 1012.56 1012.75 1013.01 1013.32 1013.64 1013.93 1014.14 1014.27 1014.31 1014.29 1014.24 1014.22 1014.26 1014.38 1014.59 1014.87 1015.20 1015.55 1015.88 1016.17 1016.42
1010.74 1010.76 1010.93 1011.23 1011.58 1011.92 1012.17 1012.31 1012.32 1012.22 1012.06 1011.89 1011.75 1011.68 1011.67 1011.72 1011.79 1011.86 1011.92 1011.97 1012.02 1012.12 1012.28 1012.51 1012.80 1013.12 1013.45 1013.72 1013.90 1013.98 1013.97 1013.91 1013.83 1013.79 1013.83 1013.97 1014.22 1014.55 1014.93 1015.32 1015.70 1016.03 1016.31
1010.69 1010.68 1010.83 1011.12 1011.47 1011.82 1012.08 1012.23 1012.24 1012.14 1011.96 1011.78 1011.62 1011.51 1011.47 1011.47 1011.51 1011.54 1011.58 1011.62 1011.68 1011.79 1011.96 1012.21 1012.51 1012.84 1013.15 1013.40 1013.55 1013.60 1013.56 1013.46 1013.37 1013.34 1013.40 1013.57 1013.85 1014.22 1014.64 1015.06 1015.45 1015.80 1016.10
1010.85 1010.79 1010.91 1011.16 1011.47 1011.77 1012.00 1012.10 1012.07 1011.94 1011.75 1011.54 1011.37 1011.26 1011.20 1011.19 1011.21 1011.23 1011.25 1011.28 1011.33 1011.44 1011.60 1011.85 1012.14 1012.46 1012.76 1012.98 1013.12 1013.15 1013.10 1013.01 1012.94 1012.92 1013.01 1013.22 1013.53 1013.93 1014.36 1014.78 1015.17 1015.50 1015.78
1011.22 1011.12 1011.19 1011.38 1011.62 1011.83 1011.96 1011.97 1011.87 1011.68 1011.45 1011.23 1011.06 1010.95 1010.91 1010.90 1010.92 1010.93 1010.93 1010.93 1010.95 1011.02 1011.16 1011.37 1011.65 1011.96 1012.24 1012.47 1012.62 1012.67 1012.65 1012.60 1012.56 1012.59 1012.72 1012.96 1013.29 1013.69 1014.11 1014.51 1014.85 1015.14 1015.37
1011.74 1011.62 1011.64 1011.76 1011.89 1011.98 1011.99 1011.88 1011.68 1011.42 1011.14 1010.90 1010.73 1010.64 1010.61 1010.62 1010.63 1010.61 1010.58 1010.53 1010.49 1010.51 1010.59 1010.77 1011.02 1011.32 1011.62 1011.88 1012.07 1012.17 1012.22 1012.23 1012.26 1012.34 1012.51 1012.78 1013.12 1013.51 1013.90 1014.25 1014.54 1014.76 1014.93
1012.32 1012.20 1012.18 1012.21 1012.24 1012.20 1012.07 1011.83 1011.52 1011.18 1010.86 1010.61 1010.44 1010.36 1010.34 1010.35 1010.34 1010.29 1010.19 1010.06 1009.94 1009.87 1009.89 1010.02 1010.24 1010.55 1010.88 1011.20 1011.47 1011.66 1011.80 1011.90 1012.00 1012.15 1012.36 1012.64 1012.99 1013.35 1013.71 1014.01 1014.24 1014.40 1014.50
1012.85 1012.75 1012.70 1012.67 1012.59 1012.43 1012.17 1011.82 1011.41 1011.00 1010.64 1010.37 1010.21 1010.14 1010.12 1010.11 1010.05 1009.93 1009.74 1009.51 1009.28 1009.11 1009.05 1009.13 1009.35 1009.67 1010.06 1010.46 1010.83 1011.13 1011.37 1011.57 1011.75 1011.95 1012.20 1012.49 1012.83 1013.18 1013.50 1013.76 1013.95 1014.05 1014.10
1013.27 1013.19 1013.14 1013.05 1012.90 1012.64 1012.28 1011.83 1011.34 1010.88 1010.49 1010.21 1010.05 1009.97 1009.93 1009.88 1009.76 1009.55 1009.25 1008.89 1008.55 1008.28 1008.14 1008.17 1008.37 1008.73 1009.18 1009.67 1010.15 1010.56 1010.91 1011.20 1011.45 1011.69 1011.96 1012.26 1012.59 1012.92 1013.22 1013.46 1013.63 1013.71 1013.73
1013.56 1013.51 1013.46 1013.34 1013.13 1012.80 1012.36 1011.85 1011.32 1010.82 1010.41 1010.12 1009.95 1009.85 1009.77 1009.66 1009.46 1009.15 1008.73 1008.26 1007.80 1007.43 1007.22 1007.20 1007.40 1007.79 1008.30 1008.88 1009.45 1009.97 1010.40 1010.76 1011.06 1011.32 1011.60 1011.89 1012.20 1012.52 1012.81 1013.06 1013.23 1013.33 1013.35
1013.75 1013.73 1013.68 1013.55 1013.30 1012.92 1012.44 1011.89 1011.33 1010.81 1010.39 1010.09 1009.89 1009.76 1009.63 1009.45 1009.17 1008.76 1008.24 1007.66 1007.10 1006.65 1006.38 1006.33 1006.52 1006.93 1007.49 1008.13 1008.77 1009.36 1009.85 1010.25 1010.56 1010.83 1011.08 1011.35 1011.64 1011.95 1012.25 1012.51 1012.72 1012.85 1012.92
1013.93 1013.92 1013.87 1013.71 1013.44 1013.04 1012.53 1011.96 1011.38 1010.85 1010.41 1010.09 1009.85 1009.67 1009.49 1009.24 1008.88 1008.40 1007.81 1007.16 1006.53 1006.03 1005.71 1005.63 1005.81 1006.22 1006.80 1007.48 1008.15 1008.77 1009.29 1009.69 1009.99 1010.23 1010.44 1010.67 1010.92 1011.21 1011.51 1011.80 1012.05 1012.24 1012.38
1014.16 1014.15 1014.07 1013.90 1013.60 1013.18 1012.65 1012.07 1011.48 1010.93 1010.47 1010.10 1009.82 1009.59 1009.35 1009.04 1008.63 1008.10 1007.47 1006.79 1006.14 1005.60 1005.26 1005.16 1005.31 1005.71 1006.28 1006.95 1007.62 1008.24 1008.75 1009.13 1009.40 1009.59 1009.74 1009.91 1010.11 1010.36 1010.65 1010.96 1011.24 1011.49 1011.69
1014.47 1014.43 1014.33 1014.12 1013.80 1013.36 1012.82 1012.23 1011.62 1011.05 1010.54 1010.13 1009.79 1009.50 1009.21 1008.86 1008.43 1007.88 1007.25 1006.57 1005.93 1005.39 1005.03 1004.91 1005.03 1005.39 1005.92 1006.55 1007.20 1007.79 1008.26 1008.61 1008.84 1008.97 1009.06 1009.16 1009.30 1009.49 1009.75 1010.04 1010.35 1010.64 1010.89
1014.84 1014.78 1014.64 1014.39 1014.04 1013.58 1013.03 1012.42 1011.80 1011.19 1010.64 1010.18 1009.78 1009.42 1009.08 1008.71 1008.26 1007.74 1007.13 1006.49 1005.88 1005.35 1004.99 1004.84 1004.92 1005.22 1005.69 1006.26 1006.86 1007.41 1007.86 1008.17 1008.36 1008.45 1008.48 1008.51 1008.57 1008.70 1008.90 1009.16 1009.45 1009.75 1010.03
1015.23 1015.12 1014.94 1014.66 1014.28 1013.81 1013.25 1012.64 1011.99 1011.36 1010.77 1010.24 1009.78 1009.37 1008.98 1008.59 1008.15 1007.65 1007.09 1006.50 1005.92 1005.42 1005.05 1004.87 1004.89 1005.12 1005.53 1006.04 1006.58 1007.10 1007.52 1007.82 1008.00 1008.06 1008.05 1008.02 1008.02 1008.07 1008.19 1008.39 1008.64 1008.93 1009.22
1015.53 1015.39 1015.17 1014.86 1014.47 1014.00 1013.45 1012.84 1012.19 1011.54 1010.91 1010.33 1009.81 1009.35 1008.92 1008.50 1008.06 1007.59 1007.07 1006.53 1005.99 1005.50 1005.13 1004.91 1004.87 1005.03 1005.35 1005.80 1006.30 1006.80 1007.22 1007.54 1007.73 1007.80 1007.78 1007.72 1007.67 1007.65 1007.70 1007.82 1008.02 1008.27 1008.55
1015.70 1015.52 1015.27 1014.95 1014.56 1014.10 1013.57 1012.99 1012.36 1011.71 1011.07 1010.45 1009.88 1009.36 1008.88 1008.43 1007.99 1007.53 1007.04 1006.52 1006.00 1005.53 1005.13 1004.87 1004.77 1004.86 1005.12 1005.51 1005.98 1006.48 1006.93 1007.29 1007.53 1007.64 1007.64 1007.58 1007.50 1007.43 1007.42 1007.48 1007.62 1007.83 1008.08
1015.69 1015.48 1015.20 1014.88 1014.51 1014.08 1013.61 1013.07 1012.49 1011.86 1011.21 1010.57 1009.96 1009.38 1008.86 1008.37 1007.90 1007.43 1006.94 1006.44 1005.93 1005.44 1005.03 1004.72 1004.56 1004.58 1004.78 1005.13 1005.59 1006.10 1006.59 1007.01 1007.32 1007.51 1007.57 1007.54 1007.46 1007.38 1007.33 1007.35 1007.44 1007.62 1007.86
1015.52 1015.28 1014.99 1014.67 1014.33 1013.96 1013.54 1013.08 1012.55 1011.96 1011.33 1010.68 1010.03 1009.41 1008.83 1008.29 1007.78 1007.28 1006.78 1006.27 1005.76 1005.26 1004.82 1004.47 1004.27 1004.23 1004.38 1004.70 1005.15 1005.67 1006.20 1006.69 1007.08 1007.34 1007.48 1007.51 1007.47 1007.40 1007.35 1007.36 1007.44 1007.60 1007.83
1015.26 1015.00 1014.69 1014.38 1014.07 1013.75 1013.40 1013.00 1012.54 1012.01 1011.41 1010.76 1010.09 1009.42 1008.79 1008.19 1007.63 1007.10 1006.57 1006.05 1005.53 1005.03 1004.57 1004.20 1003.96 1003.89 1003.99 1004.28 1004.70 1005.22 1005.78 1006.32 1006.77 1007.11 1007.32 1007.42 1007.44 1007.42 1007.40 1007.42 1007.51 1007.69 1007.94
1015.00 1014.70 1014.39 1014.08 1013.78 1013.51 1013.21 1012.88 1012.48 1012.00 1011.43 1010.79 1010.10 1009.41 1008.73 1008.08 1007.48 1006.91 1006.37 1005.84 1005.33 1004.84 1004.38 1004.01 1003.75 1003.64 1003.71 1003.95 1004.34 1004.84 1005.39 1005.93 1006.42 1006.80 1007.08 1007.24 1007.33 1007.36 1007.40 1007.46 1007.59 1007.80 1008.08
Thickness
5807 5805 5792 5790 5788 5786 5785 5783 5781 5780 5778 5776 5774 5772 5771 5769 5768 5766 5766 5765 5764 5763 5762 5761 5760 5759 5758 5758 5757 5756 5756 5755 5754 5753 5752 5751 5750 5750 5749 5749 5749 5751 5747
5808 5802 5790 5788 5785 5783 5781 5780 5778 5776 5774 5773 5771 5770 5768 5766 5765 5763 5762 5761 5761 5760 5759 5758 5757 5756 5755 5755 5754 5753 5753 5752 5751 5750 5750 5749 5748 5747 5747 5747 5747 5749 5745
5805 5799 5789 5785 5782 5780 5778 5776 5774 5772 5770 5769 5768 5766 5765 5763 5762 5760 5759 5758 5757 5756 5756 5755 5754 5753 5752 5752 5751 5750 5750 5749 5749 5748 5748 5751 5749 5746 5745 5745 5744 5743 5742
5801 5795 5789 5782 5779 5777 5774 5772 5770 5769 5767 5765 5764 5763 5761 5760 5759 5757 5756 5754 5753 5753 5752 5751 5750 5750 5749 5748 5748 5747 5747 5747 5747 5746 5749 5752 5751 5745 5743 5742 5741 5741 5739
5797 5792 5785 5779 5776 5773 5771 5769 5767 5765 5763 5762 5761 5759 5758 5757 5755 5754 5753 5752 5750 5749 5749 5748 5747 5746 5745 5745 5744 5744 5744 5744 5745 5746 5751 5750 5748 5743 5741 5740 5738 5738 5737
5793 5789 5782 5776 5773 5770 5767 5765 5763 5762 5760 5758 5757 5756 5755 5753 5752 5751 5749 5748 5747 5747 5746 5745 5744 5743 5742 5742 5741 5741 5741 5742 5743 5749 5749 5748 5746 5741 5739 5737 5736 5735 5734
5791 5788 5780 5773 5769 5766 5763 5762 5760 5758 5756 5755 5753 5752 5751 5750 5748 5747 5746 5745 5744 5743 5743 5742 5741 5740 5739 5739 5738 5738 5738 5740 5744 5748 5747 5746 5743 5738 5736 5734 5734 5733 5732
5788 5784 5777 5769 5766 5763 5760 5758 5756 5754 5753 5751 5750 5748 5747 5746 5745 5744 5743 5742 5741 5740 5739 5738 5737 5737 5736 5735 5735 5735 5735 5736 5740 5744 5744 5742 5738 5734 5732 5731 5730 5730 5729
5784 5781 5776 5770 5764 5760 5757 5755 5753 5750 5749 5747 5746 5745 5744 5743 5741 5740 5739 5738 5738 5736 5735 5734 5733 5732 5732 5732 5731 5731 5732 5733 5737 5740 5740 5739 5734 5731 5729 5728 5727 5727 5726
5779 5776 5773 5769 5764 5760 5757 5752 5749 5748 5746 5744 5742 5741 5740 5740 5739 5737 5737 5735 5734 5733 5732 5730 5729 5729 5729 5729 5728 5728 5728 5729 5736 5738 5737 5734 5730 5728 5726 5725 5724 5724 5724
5772 5770 5768 5766 5762 5759 5757 5752 5748 5745 5743 5741 5740 5738 5738 5739 5739 5737 5735 5733 5731 5730 5728 5727 5726 5726 5726 5726 5726 5725 5726 5731 5734 5734 5732 5729 5726 5724 5723 5722 5721 5721 5720
5765 5765 5764 5761 5758 5756 5754 5749 5747 5745 5742 5740 5740 5738 5737 5736 5735 5735 5732 5730 5729 5727 5726 5725 5723 5723 5724 5727 5726 5724 5727 5729 5731 5731 5729 5724 5722 5721 5720 5719 5718 5717 5717
5763 5761 5760 5757 5754 5752 5750 5747 5745 5742 5740 5739 5737 5735 5733 5733 5733 5732 5731 5729 5728 5726 5726 5725 5724 5725 5725 5725 5725 5725 5726 5726 5727 5728 5726 5721 5718 5717 5716 5715 5715 5714 5713
5759 5757 5756 5753 5749 5747 5746 5744 5741 5740 5738 5737 5734 5732 5731 5730 5729 5728 5727 5728 5727 5726 5724 5724 5723 5723 5722 5721 5721 5722 5723 5723 5723 5723 5720 5717 5715 5713 5712 5711 5711 5710 5709
5755 5753 5752 5748 5744 5741 5739 5738 5738 5736 5735 5733 5731 5729 5727 5727 5725 5726 5725 5724 5724 5723 5723 5720 5721 5719 5718 5718 5718 5719 5719 5720 5719 5718 5717 5713 5711 5710 5709 5708 5707 5707 5706
5752 5750 5747 5744 5740 5737 5735 5733 5733 5732 5730 5730 5728 5726 5723 5723 5722 5722 5721 5721 5721 5720 5718 5717 5717 5714 5714 5715 5714 5715 5714 5715 5714 5712 5712 5710 5708 5706 5705 5704 5704 5703 5703
5749 5746 5743 5741 5737 5734 5732 5731 5730 5729 5727 5727 5725 5722 5720 5719 5718 5718 5718 5718 5718 5716 5713 5712 5711 5712 5711 5711 5711 5711 5711 5710 5709 5708 5707 5706 5706 5703 5702 5700 5700 5699 5700
5746 5742 5740 5739 5734 5731 5728 5726 5727 5725 5724 5723 5722 5720 5717 5715 5715 5714 5715 5715 5713 5712 5711 5709 5709 5707 5707 5707 5707 5708 5708 5705 5704 5703 5702 5701 5701 5701 5700 5697 5696 5695 5695
5743 5739 5736 5735 5731 5728 5725 5723 5723 5721 5720 5720 5718 5716 5714 5712 5712 5712 5712 5710 5708 5708 5708 5707 5705 5704 5702 5701 5702 5703 5703 5702 5699 5699 5697 5696 5696 5696 5696 5694 5692 5691 5691
5741 5737 5733 5730 5727 5725 5723 5720 5719 5718 5717 5716 5715 5712 5710 5709 5708 5707 5707 5705 5705 5704 5702 5700 5698 5698 5697 5696 5698 5698 5697 5696 5695 5694 5692 5692 5691 5691 5691 5690 5689 5689 5687
5737 5734 5731 5727 5724 5722 5720 5718 5716 5715 5714 5713 5711 5708 5706 5704 5703 5702 5703 5701 5700 5699 5697 5696 5694 5693 5692 5691 5690 5688 5690 5691 5690 5689 5689 5688 5688 5687 5686 5686 5686 5687 5687
5734 5731 5728 5726 5723 5720 5718 5716 5714 5713 5712 5711 5709 5705 5703 5701 5700 5701 5698 5698 5696 5694 5692 5691 5689 5688 5688 5687 5684 5683 5681 5682 5682 5686 5685 5683 5684 5684 5684 5683 5683 5683 5684
5731 5729 5727 5724 5722 5719 5717 5715 5713 5710 5708 5707 5705 5703 5701 5699 5697 5696 5695 5694 5693 5692 5690 5687 5684 5683 5681 5682 5682 5680 5677 5676 5677 5680 5680 5679 5679 5679 5680 5681 5680 5680 5680
5731 5729 5725 5722 5720 5717 5715 5713 5710 5707 5704 5703 5702 5701 5699 5697 5695 5694 5692 5691 5689 5688 5686 5684 5683 5681 5678 5677 5677 5676 5676 5676 5672 5671 5673 5675 5674 5674 5675 5677 5677 5677 5676
5730 5727 5724 5719 5716 5715 5713 5711 5708 5706 5704 5703 5701 5698 5697 5695 5693 5691 5689 5687 5685 5684 5681 5680 5678 5676 5676 5674 5673 5672 5670 5670 5670 5667 5666 5667 5669 5670 5671 5671 5672 5673 5672
5729 5725 5722 5717 5713 5712 5710 5709 5706 5703 5701 5699 5697 5695 5694 5693 5691 5688 5686 5683 5682 5680 5678 5675 5673 5673 5671 5670 5669 5669 5667 5665 5664 5663 5661 5660 5662 5665 5666 5667 5668 5668 5668